Location: Wildlife_Club
(35.6000°N, 81.4330°W)
Time: 03:49:03
(UTC-04:00)

Courier 1B Rocket - Pass Details

Date: 20 June 2019
Orbit: 920 x 1202 km, 28.2° (Epoch: 21 July)

Event Time Altitude Azimuth Distance (km) Brightness Sun altitude
Exits shadow 05:15:04 10° 210° (SSW) 2,855 6.9 -10.1°
Reaches altitude 10° 05:15:08 10° 209° (SSW) 2,835 6.8 -10.1°
Maximum altitude 05:20:22 23° 159° (SSE) 1,960 6.4 -9.3°
Drops below altitude 10° 05:25:21 10° 109° (ESE) 2,694 7.8 -8.4°
Sets 05:28:27 0° 95° (E) 3,607 8.8 -7.9°
